Wind_Speed
32 32 32 32 32 32 32 31 30 29 28 29 29 29 28 28 29 29 29 29 28 28 28 27 27 27 27 27 27 27 27 27 27 27 27 27 27 27 27 28 27 27 27
32 33 33 34 34 34 33 33 31 30 29 29 29 30 29 29 30 29 30 30 29 28 28 28 28 28 29 29 28 28 28 28 28 28 28 28 28 28 28 28 29 29 29
34 34 34 35 35 35 34 34 33 32 31 30 29 30 30 30 30 31 31 30 30 30 30 30 30 30 30 30 30 30 29 29 29 29 29 29 30 30 30 30 31 31 31
36 35 36 36 36 36 35 35 34 34 33 32 31 31 32 31 30 31 32 32 31 31 31 31 31 31 31 31 30 30 30 30 31 31 31 31 31 32 32 33 33 33 33
36 36 37 37 36 36 36 36 35 34 34 33 32 32 31 32 32 32 33 34 32 31 31 32 33 33 32 31 31 31 32 32 33 33 33 33 34 34 34 35 35 35 34
37 36 36 37 37 36 36 37 36 35 34 34 33 32 31 32 33 33 33 33 33 32 32 33 33 33 33 32 32 33 33 33 34 34 34 35 35 36 35 36 36 36 36
39 37 36 36 36 36 36 37 37 36 35 35 34 33 33 33 33 33 32 32 32 32 32 32 32 31 32 32 33 33 34 35 35 35 36 36 36 37 37 37 38 38 38
38 37 35 35 36 36 37 38 38 37 36 35 35 35 34 34 34 34 32 31 31 31 31 31 31 31 31 32 33 34 34 35 35 36 37 37 37 38 38 39 39 40 40
38 37 36 36 36 36 36 37 37 38 36 35 35 35 34 34 34 33 32 31 31 31 32 32 32 32 32 33 34 34 35 36 36 37 37 38 38 38 39 39 40 41 42
38 37 37 37 36 36 36 36 38 38 37 36 35 34 34 33 32 32 31 31 31 32 32 33 33 33 34 34 35 35 36 36 38 38 38 38 39 39 39 40 40 41 42
38 38 37 38 38 37 37 37 38 38 38 37 36 35 34 33 33 32 32 32 32 32 32 33 34 34 35 35 36 37 38 38 39 40 40 39 39 39 40 40 40 41 41
39 39 38 38 39 39 39 38 38 39 38 38 38 36 34 33 34 34 34 34 34 34 34 34 34 35 35 36 37 38 39 40 40 40 40 40 40 41 41 41 41 41 41
39 38 39 39 39 39 39 38 38 39 39 40 38 37 36 35 35 36 36 36 35 36 35 35 35 35 36 37 37 38 39 40 41 41 41 41 42 41 41 41 41 40 41
40 40 39 38 38 39 39 39 39 39 39 39 39 38 38 37 37 36 37 37 36 36 37 37 37 37 38 39 39 39 40 40 40 40 41 41 42 41 41 40 39 39 39
42 41 40 41 40 40 40 39 39 39 39 39 40 40 39 39 39 38 38 39 39 39 39 39 39 39 40 40 40 41 41 41 40 40 41 41 40 40 39 39 38 38 38
42 41 40 41 41 42 41 39 38 37 38 38 39 40 40 39 39 39 39 39 39 39 39 39 40 41 41 42 42 41 41 41 41 41 41 40 39 38 39 38 38 38 39
42 41 41 41 41 40 40 40 39 38 38 38 39 40 41 40 40 40 40 40 40 41 41 41 41 42 42 42 42 42 42 42 42 41 40 40 39 39 39 39 40 40 39
41 40 40 41 41 41 40 40 39 39 38 38 38 40 41 42 41 41 40 40 40 41 42 42 43 44 43 44 44 43 43 42 41 41 40 40 40 40 40 40 40 40 40
41 41 40 41 41 41 40 40 39 40 39 38 39 40 41 41 42 41 41 41 42 41 42 42 43 44 43 44 44 43 43 42 41 40 40 40 40 40 40 40 40 40 40
41 42 41 42 42 42 41 40 39 40 40 39 39 40 41 41 42 42 41 41 42 42 42 42 43 43 43 43 43 42 41 41 40 40 40 40 40 40 40 40 39 39 39
42 42 42 42 42 42 42 41 40 40 40 39 39 40 40 41 42 42 42 42 42 42 42 42 42 42 42 41 41 40 40 39 39 40 40 39 40 40 39 38 38 38 38
41 41 42 42 42 42 42 42 42 41 41 40 39 39 40 40 41 42 43 43 42 42 41 41 41 41 41 39 38 37 38 38 38 38 38 38 38 38 38 37 37 37 37
43 43 43 42 41 41 41 41 41 41 40 39 39 39 39 38 39 40 41 41 41 41 41 41 41 41 40 39 38 38 38 38 38 38 37 37 37 37 37 36 37 36 36
43 43 43 43 42 41 41 41 41 41 40 39 39 38 38 38 38 39 40 40 41 41 41 41 41 40 40 40 39 38 37 36 37 37 37 37 37 36 36 36 36 35 35
42 43 44 44 43 42 41 41 41 41 40 39 39 39 38 39 40 40 40 40 40 41 41 40 40 40 40 39 38 37 36 36 35 36 36 37 36 36 36 35 35 34 34
40 41 41 42 43 42 42 41 41 41 40 39 39 40 39 39 39 39 39 39 39 39 40 39 39 38 38 38 37 37 36 36 35 35 35 35 35 35 35 35 35 35 35
Wind_Direction
260 262 261 261 262 263 264 265 266 268 267 267 266 267 268 271 272 272 272 271 273 274 275 277 278 279 279 279 280 280 280 281 281 281 281 281 281 282 283 283 284 284 285
259 261 260 260 261 261 261 263 263 263 264 267 267 267 267 270 271 272 271 270 271 273 274 276 277 279 279 279 279 278 280 281 281 281 282 281 280 281 282 284 284 285 285
259 260 260 259 260 261 261 260 261 261 262 265 266 265 266 270 271 272 271 270 270 272 274 276 277 278 279 279 278 278 279 280 280 281 282 282 282 282 282 283 284 284 284
259 261 261 260 259 259 259 259 259 260 260 263 265 266 267 269 272 274 271 268 270 271 274 276 277 278 278 279 278 279 279 279 280 281 281 282 282 282 282 282 283 284 284
257 259 261 260 259 258 258 258 258 259 261 262 265 266 270 272 274 276 274 269 269 271 274 276 277 278 278 278 279 279 279 279 280 282 283 283 283 282 283 283 283 284 284
257 258 260 261 260 258 257 257 257 258 259 261 265 267 270 272 274 277 274 271 271 272 275 276 277 278 278 278 279 279 279 280 282 283 284 284 284 283 283 283 283 283 283
257 258 260 259 260 258 256 256 256 256 259 262 263 265 269 270 272 275 273 272 272 272 275 276 277 278 279 278 279 279 280 281 281 283 285 285 285 285 284 284 284 283 284
256 257 259 259 260 259 258 257 256 256 259 261 262 264 268 271 272 272 272 272 273 272 274 275 277 278 279 280 279 279 280 281 282 283 284 285 285 285 285 285 284 284 284
254 256 259 260 260 259 259 257 256 256 258 259 261 264 267 270 271 270 270 272 272 273 274 276 278 279 280 281 280 279 280 281 282 283 283 283 284 285 285 285 285 285 284
253 255 257 258 259 257 258 259 258 256 258 260 263 265 267 268 269 267 268 271 272 273 276 277 278 281 281 281 282 281 281 281 282 283 283 283 283 284 285 286 286 286 285
252 253 256 257 257 258 258 260 260 258 259 260 263 264 266 266 266 267 268 268 270 272 275 277 279 281 283 283 283 284 283 283 284 283 283 283 283 283 284 285 286 286 285
251 252 255 257 257 259 260 261 262 259 259 260 262 262 262 264 265 266 268 268 269 272 275 277 278 280 283 284 284 285 285 284 284 284 283 283 282 283 284 285 286 286 285
251 253 256 258 259 260 261 262 263 261 260 260 259 259 260 263 266 267 267 268 270 272 274 276 278 280 281 283 285 286 286 286 285 284 284 283 283 283 284 284 285 286 286
253 254 256 258 258 259 260 262 263 262 261 259 257 257 259 262 265 266 267 269 271 273 274 277 278 279 280 282 284 286 286 286 285 285 284 284 284 283 283 283 284 285 286
253 255 257 258 258 259 260 262 262 262 260 258 258 258 259 262 265 265 267 269 272 274 275 277 278 279 281 283 284 285 285 285 285 285 285 285 284 282 282 283 283 284 285
254 255 257 259 259 259 260 262 262 262 259 258 258 258 259 261 264 266 267 270 272 274 276 278 279 280 283 284 284 284 284 284 283 283 285 284 283 283 283 283 284 284 285
253 256 257 259 260 261 262 263 262 260 259 259 258 259 260 261 263 265 268 270 272 274 275 277 279 281 283 283 284 284 283 283 282 282 283 283 282 283 283 283 284 284 285
256 258 258 259 261 262 263 263 262 259 258 259 261 261 261 262 264 265 268 270 272 274 276 277 279 280 282 283 284 284 283 282 282 281 281 282 283 283 283 284 284 284 285
256 259 260 260 261 263 264 264 262 260 259 261 263 264 263 263 265 266 268 270 272 273 275 277 279 280 282 283 283 283 283 282 282 282 283 284 284 284 284 284 284 284 285
257 259 260 261 261 262 263 263 262 262 260 263 265 266 265 264 266 268 269 270 271 272 274 276 278 280 282 283 283 283 282 282 281 282 283 283 283 284 284 284 285 285 286
259 260 261 262 261 260 260 261 262 261 262 263 264 266 268 268 268 268 269 270 271 272 274 275 277 280 282 283 283 282 281 281 282 282 283 283 283 284 284 285 285 285 286
259 261 261 261 261 261 260 260 261 261 262 262 263 265 267 269 268 269 270 271 271 272 274 275 277 279 281 282 283 283 281 282 282 282 283 284 284 284 283 283 284 285 285
261 261 262 262 262 261 259 260 262 262 262 262 262 264 266 267 269 269 271 272 272 272 274 276 278 279 280 280 281 282 282 281 282 282 283 284 284 285 284 282 282 282 284
261 261 262 262 261 260 260 261 262 263 263 263 262 263 265 267 269 270 271 272 273 273 275 276 278 279 280 279 279 280 280 281 282 282 282 284 285 284 284 282 281 283 283
261 262 262 261 260 260 260 260 262 262 263 262 261 262 265 268 269 271 272 273 274 274 274 276 277 278 279 279 278 279 279 280 282 282 283 285 286 285 283 282 282 283 283
263 264 263 261 259 259 259 260 261 261 261 261 261 263 266 268 270 270 272 273 274 274 274 275 277 277 278 278 278 278 278 279 281 282 285 286 286 284 282 282 283 283 285
Height
5789 5790 5791 5792 5793 5794 5795 5796 5797 5798 5798 5799 5799 5800 5800 5800 5800 5800 5800 5800 5800 5800 5799 5799 5798 5798 5798 5797 5797 5796 5796 5795 5795 5794 5794 5793 5793 5793 5792 5792 5791 5790 5789
5781 5783 5784 5785 5785 5786 5787 5788 5789 5790 5791 5791 5792 5793 5793 5793 5793 5793 5793 5793 5793 5793 5793 5793 5792 5792 5791 5791 5790 5790 5789 5789 5789 5788 5787 5787 5786 5786 5785 5785 5784 5784 5783
5773 5774 5775 5776 5777 5777 5778 5780 5781 5783 5784 5784 5785 5786 5786 5786 5786 5786 5786 5786 5787 5787 5786 5786 5786 5785 5785 5784 5783 5783 5783 5782 5782 5781 5780 5780 5779 5779 5778 5778 5777 5776 5776
5765 5766 5766 5767 5768 5769 5770 5771 5773 5774 5775 5777 5778 5778 5779 5779 5779 5779 5779 5779 5779 5779 5779 5779 5779 5778 5777 5777 5777 5776 5776 5775 5775 5774 5773 5773 5772 5771 5771 5770 5769 5769 5768
5756 5757 5758 5758 5759 5760 5761 5763 5764 5766 5767 5769 5770 5771 5771 5771 5771 5771 5771 5771 5771 5771 5772 5771 5771 5770 5770 5769 5769 5769 5768 5768 5767 5767 5766 5765 5764 5764 5763 5762 5761 5760 5759
5747 5748 5748 5749 5750 5751 5752 5754 5756 5757 5759 5760 5762 5763 5763 5763 5764 5764 5763 5763 5764 5763 5763 5763 5763 5762 5762 5761 5761 5761 5761 5760 5759 5759 5758 5757 5756 5756 5755 5754 5753 5752 5751
5737 5739 5740 5741 5742 5743 5744 5746 5747 5749 5751 5752 5754 5755 5756 5756 5756 5756 5755 5755 5756 5755 5755 5755 5754 5754 5754 5753 5753 5752 5752 5752 5751 5750 5749 5748 5747 5747 5746 5745 5744 5743 5741
5728 5730 5731 5732 5734 5735 5736 5737 5739 5740 5742 5744 5745 5746 5747 5749 5748 5748 5748 5748 5747 5747 5747 5747 5747 5746 5746 5745 5745 5744 5744 5743 5742 5742 5741 5739 5738 5737 5736 5736 5735 5733 5732
5719 5721 5723 5724 5725 5727 5728 5729 5730 5732 5734 5735 5736 5737 5738 5739 5740 5741 5740 5740 5740 5740 5740 5740 5739 5739 5738 5737 5737 5736 5735 5734 5733 5732 5731 5730 5728 5727 5726 5725 5724 5723 5721
5710 5712 5714 5715 5717 5718 5719 5720 5722 5723 5725 5726 5727 5729 5729 5730 5731 5732 5733 5733 5733 5733 5733 5732 5732 5731 5730 5730 5729 5728 5727 5725 5724 5723 5722 5720 5718 5717 5716 5715 5713 5712 5710
5701 5703 5705 5707 5708 5709 5711 5712 5713 5714 5716 5717 5718 5720 5721 5721 5722 5723 5725 5726 5726 5725 5725 5724 5724 5723 5722 5721 5720 5719 5718 5716 5715 5713 5711 5710 5708 5707 5705 5704 5703 5701 5699
5692 5694 5696 5698 5699 5700 5702 5703 5704 5705 5706 5708 5709 5710 5711 5713 5714 5715 5715 5716 5717 5718 5717 5716 5716 5715 5714 5712 5711 5710 5708 5707 5705 5703 5701 5699 5697 5696 5695 5694 5692 5690 5688
5682 5684 5687 5688 5690 5691 5692 5693 5694 5695 5697 5698 5699 5700 5702 5703 5705 5705 5706 5707 5708 5708 5708 5708 5707 5706 5705 5703 5702 5700 5698 5696 5694 5692 5690 5689 5687 5685 5684 5683 5681 5679 5677
5672 5674 5676 5678 5680 5682 5682 5683 5684 5685 5686 5688 5689 5691 5692 5694 5695 5695 5697 5697 5698 5698 5699 5699 5698 5697 5695 5694 5692 5690 5688 5686 5684 5682 5680 5678 5676 5675 5673 5672 5670 5669 5667
5662 5664 5666 5668 5670 5671 5672 5673 5674 5675 5676 5678 5679 5681 5682 5684 5685 5686 5686 5687 5687 5688 5689 5689 5688 5687 5685 5684 5682 5679 5677 5675 5673 5671 5669 5668 5666 5664 5663 5661 5660 5658 5657
5652 5654 5656 5657 5659 5661 5662 5663 5664 5665 5666 5668 5669 5671 5672 5674 5675 5676 5676 5676 5677 5677 5677 5678 5677 5676 5674 5672 5671 5668 5666 5664 5662 5661 5659 5657 5655 5654 5652 5651 5650 5648 5647
5642 5644 5645 5647 5648 5650 5651 5653 5654 5655 5657 5658 5659 5660 5662 5663 5664 5665 5665 5666 5666 5666 5665 5666 5666 5665 5663 5661 5659 5657 5655 5653 5651 5650 5648 5646 5645 5643 5642 5641 5640 5638 5636
5631 5633 5635 5637 5638 5639 5641 5642 5643 5644 5646 5648 5649 5650 5652 5653 5653 5655 5655 5655 5655 5655 5654 5654 5654 5653 5651 5649 5647 5645 5643 5642 5640 5639 5637 5636 5634 5633 5632 5630 5629 5628 5626
5621 5622 5624 5626 5627 5629 5630 5631 5633 5634 5636 5637 5638 5640 5641 5642 5643 5644 5644 5644 5644 5644 5643 5643 5642 5641 5639 5638 5636 5634 5632 5630 5629 5628 5626 5625 5623 5622 5621 5620 5618 5617 5615
5610 5612 5613 5615 5616 5617 5619 5621 5622 5623 5625 5627 5628 5629 5630 5631 5632 5633 5633 5633 5633 5632 5632 5631 5630 5629 5628 5626 5624 5623 5621 5620 5618 5617 5616 5614 5613 5612 5611 5610 5608 5607 5605
5599 5601 5602 5603 5605 5606 5608 5609 5611 5613 5614 5616 5618 5619 5619 5620 5620 5621 5621 5622 5621 5621 5621 5620 5619 5618 5616 5615 5613 5611 5610 5609 5608 5607 5605 5604 5602 5601 5600 5599 5597 5596 5594
5589 5590 5591 5593 5594 5595 5596 5598 5600 5601 5603 5605 5607 5608 5608 5609 5609 5609 5610 5610 5610 5610 5609 5608 5608 5606 5605 5604 5602 5601 5599 5599 5598 5598 5595 5594 5592 5591 5589 5589 5587 5585 5584
5578 5579 5580 5581 5583 5584 5585 5587 5588 5590 5592 5593 5595 5597 5597 5598 5598 5599 5599 5599 5598 5598 5598 5598 5597 5595 5594 5593 5592 5591 5589 5588 5587 5586 5585 5584 5582 5581 5580 5578 5577 5575 5574
5567 5568 5569 5570 5571 5573 5574 5576 5577 5579 5580 5582 5584 5585 5586 5587 5588 5588 5589 5589 5588 5587 5587 5587 5586 5584 5583 5582 5581 5580 5579 5578 5577 5576 5574 5573 5572 5570 5569 5568 5567 5565 5564
5556 5557 5558 5559 5560 5562 5563 5564 5566 5567 5569 5571 5573 5574 5576 5577 5578 5577 5578 5578 5578 5577 5576 5575 5574 5573 5572 5571 5570 5569 5569 5568 5567 5566 5565 5564 5562 5560 5559 5558 5557 5556 5555
5545 5545 5546 5547 5549 5550 5552 5553 5555 5556 5559 5561 5562 5563 5565 5566 5566 5566 5566 5567 5567 5566 5566 5565 5564 5563 5561 5560 5560 5559 5558 5557 5557 5556 5555 5554 5552 5551 5550 5549 5547 5546 5545